Time,TemperatureF,DewpointF,PressureIn,WindDirection,WindDirectionDegrees,WindSpeedMPH,WindSpeedGustMPH,Humidity,HourlyPrecipIn,Conditions,Clouds,dailyrainin,SoftwareType,DateUTC
2013-01-08 00:10:00,50.4,42.0,30.15,NE,52,0.0,1.0,72,0.00,,,0.00,weatherlink.com 1.10,2013-01-08 06:10:00,
2013-01-08 00:25:00,50.2,42.0,30.16,NE,52,0.0,0.0,73,0.00,,,0.00,weatherlink.com 1.10,2013-01-08 06:25:00,
2013-01-08 00:40:00,50.2,42.0,30.15,ENE,68,0.0,2.0,73,0.00,,,0.00,weatherlink.com 1.10,2013-01-08 06:40:00,
2013-01-08 00:55:00,50.8,43.0,30.15,ENE,69,2.0,3.0,75,0.00,,,0.00,weatherlink.com 1.10,2013-01-08 06:55:00,
2013-01-08 01:10:00,51.2,45.0,30.15,East,93,1.0,3.0,79,0.00,,,0.00,weatherlink.com 1.10,2013-01-08 07:10:00,
2013-01-08 01:25:00,51.9,46.0,30.14,East,90,3.0,5.0,79,0.00,,,0.00,weatherlink.com 1.10,2013-01-08 07:25:00,
2013-01-08 01:40:00,52.0,46.0,30.15,East,92,2.0,5.0,79,0.00,,,0.00,weatherlink.com 1.10,2013-01-08 07:40:00,
2013-01-08 01:55:00,51.9,46.0,30.14,ENE,72,1.0,3.0,79,0.00,,,0.00,weatherlink.com 1.10,2013-01-08 07:55:00,
2013-01-08 02:10:00,51.6,44.0,30.13,ENE,65,1.0,4.0,76,0.00,,,0.00,weatherlink.com 1.10,2013-01-08 08:10:00,
2013-01-08 02:25:00,51.9,43.0,30.13,ENE,67,3.0,5.0,72,0.00,,,0.00,weatherlink.com 1.10,2013-01-08 08:25:00,
2013-01-08 02:40:00,51.5,43.0,30.13,NE,36,4.0,6.0,72,0.00,,,0.00,weatherlink.com 1.10,2013-01-08 08:40:00,
2013-01-08 02:56:00,49.4,42.0,30.12,NNE,24,5.0,6.0,75,0.00,,,0.00,weatherlink.com 1.10,2013-01-08 08:56:00,
2013-01-08 03:11:00,48.7,42.0,30.12,NNE,22,3.0,7.0,77,0.00,,,0.00,weatherlink.com 1.10,2013-01-08 09:11:00,
2013-01-08 03:26:00,48.6,42.0,30.12,NNE,19,5.0,8.0,77,0.00,,,0.00,weatherlink.com 1.10,2013-01-08 09:26:00,
2013-01-08 03:41:00,48.8,42.0,30.12,NNE,31,1.0,7.0,77,0.00,,,0.00,weatherlink.com 1.10,2013-01-08 09:41:00,
2013-01-08 03:56:00,48.7,42.0,30.12,NNE,28,4.0,6.0,78,0.00,,,0.00,weatherlink.com 1.10,2013-01-08 09:56:00,
2013-01-08 04:11:00,48.5,42.0,30.12,NNE,22,5.0,8.0,78,0.00,,,0.00,weatherlink.com 1.10,2013-01-08 10:11:00,
2013-01-08 04:26:00,48.6,42.0,30.13,NNE,19,3.0,8.0,79,0.00,,,0.00,weatherlink.com 1.10,2013-01-08 10:26:00,
2013-01-08 04:41:00,48.9,43.0,30.12,NE,35,5.0,8.0,79,0.00,,,0.00,weatherlink.com 1.10,2013-01-08 10:41:00,
2013-01-08 04:56:00,50.1,44.0,30.12,NE,55,4.0,6.0,79,0.00,,,0.00,weatherlink.com 1.10,2013-01-08 10:56:00,
2013-01-08 05:11:00,51.3,45.0,30.11,NE,44,2.0,7.0,79,0.00,,,0.00,weatherlink.com 1.10,2013-01-08 11:11:00,
2013-01-08 05:26:00,51.5,46.0,30.11,NE,38,5.0,7.0,80,0.00,,,0.00,weatherlink.com 1.10,2013-01-08 11:26:00,
2013-01-08 05:41:00,51.4,45.0,30.12,NE,36,1.0,8.0,79,0.00,,,0.00,weatherlink.com 1.10,2013-01-08 11:41:00,
2013-01-08 05:56:00,50.9,45.0,30.13,NE,34,3.0,6.0,81,0.00,,,0.00,weatherlink.com 1.10,2013-01-08 11:56:00,
2013-01-08 06:11:00,51.4,46.0,30.14,NNE,28,7.0,8.0,81,0.00,,,0.00,weatherlink.com 1.10,2013-01-08 12:11:00,
2013-01-08 06:26:00,51.4,46.0,30.13,NE,50,1.0,8.0,82,0.00,,,0.00,weatherlink.com 1.10,2013-01-08 12:26:00,
2013-01-08 06:41:00,51.9,46.0,30.13,NE,36,3.0,7.0,81,0.00,,,0.00,weatherlink.com 1.10,2013-01-08 12:41:00,
2013-01-08 06:56:00,52.4,47.0,30.14,ENE,59,4.0,9.0,82,0.00,,,0.00,weatherlink.com 1.10,2013-01-08 12:56:00,
2013-01-08 07:11:00,52.7,48.0,30.14,NE,56,3.0,8.0,83,0.00,,,0.00,weatherlink.com 1.10,2013-01-08 13:11:00,
2013-01-08 07:26:00,53.3,48.0,30.15,NNE,23,12.0,12.0,83,0.00,,,0.00,weatherlink.com 1.10,2013-01-08 13:26:00,
2013-01-08 07:41:00,53.7,49.0,30.16,NE,39,1.0,8.0,84,0.00,,,0.00,weatherlink.com 1.10,2013-01-08 13:41:00,
2013-01-08 07:56:00,53.7,49.0,30.16,ENE,59,3.0,10.0,84,0.00,,,0.00,weatherlink.com 1.10,2013-01-08 13:56:00,
2013-01-08 08:11:00,53.9,50.0,30.16,East,81,2.0,10.0,85,0.00,,,0.00,weatherlink.com 1.10,2013-01-08 14:11:00,
2013-01-08 08:26:00,54.2,51.0,30.17,ENE,69,8.0,9.0,88,0.00,,,0.00,weatherlink.com 1.10,2013-01-08 14:26:00,
2013-01-08 08:41:00,54.0,51.0,30.17,ENE,76,7.0,10.0,89,0.00,,,0.00,weatherlink.com 1.10,2013-01-08 14:41:00,
2013-01-08 08:56:00,53.7,51.0,30.17,East,84,7.0,9.0,91,0.00,,,0.00,weatherlink.com 1.10,2013-01-08 14:56:00,
2013-01-08 09:11:00,53.6,51.0,30.18,ENE,72,4.0,13.0,90,0.00,,,0.00,weatherlink.com 1.10,2013-01-08 15:11:00,
2013-01-08 09:26:00,53.9,51.0,30.18,ENE,77,7.0,10.0,91,0.00,,,0.00,weatherlink.com 1.10,2013-01-08 15:26:00,
2013-01-08 09:41:00,54.2,52.0,30.18,ENE,64,5.0,11.0,91,0.00,,,0.00,weatherlink.com 1.10,2013-01-08 15:41:00,
2013-01-08 09:56:00,55.0,53.0,30.18,ENE,72,4.0,10.0,91,0.00,,,0.00,weatherlink.com 1.10,2013-01-08 15:56:00,
2013-01-08 10:12:00,55.5,53.0,30.18,East,82,5.0,9.0,90,0.00,,,0.00,weatherlink.com 1.10,2013-01-08 16:12:00,
2013-01-08 10:26:00,55.4,53.0,30.18,ENE,76,3.0,9.0,90,0.00,,,0.00,weatherlink.com 1.10,2013-01-08 16:26:00,
2013-01-08 10:41:00,55.4,53.0,30.18,ENE,74,4.0,8.0,90,0.00,,,0.00,weatherlink.com 1.10,2013-01-08 16:41:00,
2013-01-08 10:56:00,55.5,53.0,30.18,ENE,75,3.0,9.0,91,0.00,,,0.00,weatherlink.com 1.10,2013-01-08 16:56:00,
2013-01-08 11:11:00,55.2,53.0,30.17,ENE,78,3.0,7.0,91,0.00,,,0.00,weatherlink.com 1.10,2013-01-08 17:11:00,
2013-01-08 11:26:00,55.0,53.0,30.17,East,83,6.0,7.0,92,0.00,,,0.00,weatherlink.com 1.10,2013-01-08 17:26:00,
2013-01-08 11:41:00,54.8,53.0,30.16,East,90,3.0,6.0,92,0.00,,,0.00,weatherlink.com 1.10,2013-01-08 17:41:00,
2013-01-08 11:56:00,54.6,53.0,30.15,East,91,5.0,7.0,93,0.00,,,0.00,weatherlink.com 1.10,2013-01-08 17:56:00,
2013-01-08 12:11:00,54.2,53.0,30.15,East,80,2.0,5.0,94,0.00,,,0.00,weatherlink.com 1.10,2013-01-08 18:11:00,
2013-01-08 12:26:00,54.4,53.0,30.13,East,86,5.0,8.0,95,0.00,,,0.00,weatherlink.com 1.10,2013-01-08 18:26:00,
2013-01-08 12:41:00,54.4,53.0,30.13,East,98,3.0,7.0,95,0.00,,,0.00,weatherlink.com 1.10,2013-01-08 18:41:00,
2013-01-08 12:56:00,54.1,53.0,30.12,East,97,3.0,7.0,95,0.00,,,0.00,weatherlink.com 1.10,2013-01-08 18:56:00,
2013-01-08 13:11:00,54.4,53.0,30.12,ESE,108,4.0,7.0,95,0.00,,,0.00,weatherlink.com 1.10,2013-01-08 19:11:00,
2013-01-08 13:26:00,54.5,53.0,30.11,East,84,5.0,7.0,95,0.00,,,0.00,weatherlink.com 1.10,2013-01-08 19:26:00,
2013-01-08 13:42:00,54.7,53.0,30.10,East,88,6.0,8.0,95,0.00,,,0.00,weatherlink.com 1.10,2013-01-08 19:42:00,
2013-01-08 13:57:00,54.8,54.0,30.10,ESE,103,7.0,9.0,96,0.00,,,0.00,weatherlink.com 1.10,2013-01-08 19:57:00,
2013-01-08 14:12:00,54.8,54.0,30.09,East,89,3.0,9.0,96,0.00,,,0.00,weatherlink.com 1.10,2013-01-08 20:12:00,
2013-01-08 14:27:00,55.1,54.0,30.09,East,82,6.0,9.0,97,0.00,,,0.00,weatherlink.com 1.10,2013-01-08 20:27:00,
2013-01-08 14:42:00,55.4,55.0,30.09,East,82,3.0,8.0,97,0.00,,,0.00,weatherlink.com 1.10,2013-01-08 20:42:00,
2013-01-08 14:57:00,55.6,55.0,30.09,East,85,6.0,8.0,97,0.00,,,0.00,weatherlink.com 1.10,2013-01-08 20:57:00,
2013-01-08 15:12:00,55.6,55.0,30.09,East,91,5.0,7.0,97,0.00,,,0.00,weatherlink.com 1.10,2013-01-08 21:12:00,
2013-01-08 15:27:00,55.4,55.0,30.09,East,89,2.0,7.0,97,0.00,,,0.00,weatherlink.com 1.10,2013-01-08 21:27:00,
2013-01-08 15:43:00,55.1,54.0,30.10,East,98,2.0,8.0,97,0.00,,,0.00,weatherlink.com 1.10,2013-01-08 21:43:00,
2013-01-08 15:57:00,55.1,54.0,30.09,East,96,1.0,7.0,97,0.00,,,0.00,weatherlink.com 1.10,2013-01-08 21:57:00,
2013-01-08 16:12:00,55.3,55.0,30.09,ENE,76,2.0,7.0,97,0.00,,,0.00,weatherlink.com 1.10,2013-01-08 22:12:00,
2013-01-08 16:27:00,55.7,55.0,30.08,East,82,5.0,8.0,97,0.00,,,0.00,weatherlink.com 1.10,2013-01-08 22:27:00,
2013-01-08 16:42:00,56.0,55.0,30.08,East,91,5.0,8.0,97,0.00,,,0.00,weatherlink.com 1.10,2013-01-08 22:42:00,
2013-01-08 16:57:00,55.8,55.0,30.08,East,95,5.0,7.0,97,0.00,,,0.00,weatherlink.com 1.10,2013-01-08 22:57:00,
2013-01-08 17:12:00,55.8,55.0,30.09,East,98,3.0,8.0,97,0.00,,,0.00,weatherlink.com 1.10,2013-01-08 23:12:00,
2013-01-08 17:27:00,56.2,55.0,30.09,East,93,3.0,8.0,97,0.00,,,0.00,weatherlink.com 1.10,2013-01-08 23:27:00,
2013-01-08 17:42:00,56.5,55.0,30.10,East,90,6.0,8.0,96,0.00,,,0.00,weatherlink.com 1.10,2013-01-08 23:42:00,
2013-01-08 17:57:00,56.2,55.0,30.10,East,90,6.0,7.0,96,0.00,,,0.00,weatherlink.com 1.10,2013-01-08 23:57:00,
2013-01-08 18:12:00,56.0,55.0,30.09,ENE,72,8.0,9.0,96,0.00,,,0.00,weatherlink.com 1.10,2013-01-09 00:12:00,
2013-01-08 18:27:00,55.9,55.0,30.08,East,85,5.0,10.0,96,0.00,,,0.00,weatherlink.com 1.10,2013-01-09 00:27:00,
2013-01-08 18:42:00,55.8,55.0,30.09,East,91,8.0,10.0,96,0.00,,,0.00,weatherlink.com 1.10,2013-01-09 00:42:00,
2013-01-08 18:57:00,56.2,55.0,30.08,East,82,7.0,13.0,97,0.00,,,0.00,weatherlink.com 1.10,2013-01-09 00:57:00,
2013-01-08 19:12:00,56.0,55.0,30.08,East,101,6.0,11.0,97,0.00,,,0.00,weatherlink.com 1.10,2013-01-09 01:12:00,
2013-01-08 19:27:00,56.2,55.0,30.09,East,90,8.0,11.0,97,0.00,,,0.00,weatherlink.com 1.10,2013-01-09 01:27:00,
2013-01-08 19:42:00,56.1,55.0,30.09,East,89,6.0,9.0,97,0.00,,,0.00,weatherlink.com 1.10,2013-01-09 01:42:00,
2013-01-08 19:57:00,55.6,55.0,30.09,East,85,6.0,8.0,97,0.00,,,0.00,weatherlink.com 1.10,2013-01-09 01:57:00,
2013-01-08 20:12:00,56.1,55.0,30.08,East,90,8.0,11.0,96,0.00,,,0.00,weatherlink.com 1.10,2013-01-09 02:12:00,
2013-01-08 20:27:00,56.0,55.0,30.10,ENE,76,4.0,10.0,95,0.00,,,0.00,weatherlink.com 1.10,2013-01-09 02:27:00,
2013-01-08 20:42:00,56.7,55.0,30.11,ENE,76,5.0,10.0,95,0.00,,,0.00,weatherlink.com 1.10,2013-01-09 02:42:00,
2013-01-08 20:57:00,57.3,56.0,30.11,ENE,78,5.0,9.0,95,0.00,,,0.00,weatherlink.com 1.10,2013-01-09 02:57:00,
2013-01-08 21:27:00,58.3,57.0,30.11,ENE,77,8.0,10.0,96,0.00,,,0.00,weatherlink.com 1.10,2013-01-09 03:27:00,
2013-01-08 21:42:00,57.7,57.0,30.11,ENE,78,7.0,10.0,96,0.00,,,0.00,weatherlink.com 1.10,2013-01-09 03:42:00,
2013-01-08 21:57:00,57.9,57.0,30.10,ENE,75,8.0,11.0,96,0.00,,,0.00,weatherlink.com 1.10,2013-01-09 03:57:00,
2013-01-08 22:12:00,58.1,57.0,30.09,ENE,67,11.0,12.0,96,0.00,,,0.00,weatherlink.com 1.10,2013-01-09 04:12:00,
2013-01-08 22:27:00,58.0,57.0,30.12,East,82,6.0,11.0,96,0.00,,,0.00,weatherlink.com 1.10,2013-01-09 04:27:00,
2013-01-08 22:42:00,57.8,57.0,30.11,ENE,65,8.0,12.0,97,0.00,,,0.00,weatherlink.com 1.10,2013-01-09 04:42:00,
2013-01-08 22:57:00,58.2,57.0,30.11,ENE,69,8.0,12.0,96,0.00,,,0.00,weatherlink.com 1.10,2013-01-09 04:57:00,
2013-01-08 23:12:00,58.3,57.0,30.11,ENE,74,7.0,12.0,95,0.00,,,0.00,weatherlink.com 1.10,2013-01-09 05:12:00,
2013-01-08 23:27:00,58.3,57.0,30.11,East,80,8.0,11.0,95,0.00,,,0.00,weatherlink.com 1.10,2013-01-09 05:27:00,
2013-01-08 23:42:00,58.4,57.0,30.11,ENE,77,7.0,10.0,94,0.00,,,0.00,weatherlink.com 1.10,2013-01-09 05:42:00,
2013-01-08 23:57:00,58.3,57.0,30.12,ENE,78,5.0,10.0,94,0.00,,,0.00,weatherlink.com 1.10,2013-01-09 05:57:00,